User: anonymous   Login
Location: Prague
(50.0830°N, 14.4670°E)
Time: 19:58:07
(UTC+01:00)
Language:

HuskySat-1 - Orbit

View from above orbital plane
View from above orbital plane
View from above satellite
View from above satellite

Ground track
Ground track

The orbit data is extracted from the following two-line orbital elements,

1 45117U 19071G   21341.36402072  .00008089  00000-0  21696-3 0  9993
2 45117  51.6407 275.4097 0009021 191.5819 168.4959 15.38848614103782
Epoch (UTC): 07 December 2021 08:44:11
Eccentricity: 0.0009021
inclination: 51.6407°
perigee height: 443 km
apogee height: 455 km
right ascension of ascending node: 275.4097°
argument of perigee: 191.5819°
revolutions per day: 15.38848614
mean anomaly at epoch: 168.4959°
orbit number at epoch: 10378

The dashed part of the orbit path shows where the satellite is in the earth's shadow,  

DLR